Location: Newark
(42.8200°N, 13.1900°E)
Time: 22:16:21
(UTC+00:00)

STARLINK-1213 - Pass Details

Date: 06 April 2020
Orbit: 379 x 381 km, 53.0° (Epoch: 05 June)

Event Time Altitude Azimuth Distance (km) Brightness Sun altitude
Exits shadow 02:36:00 13° 337° (NNW) 1,303 5.6 -22.0°
Maximum altitude 02:36:55 14° 356° (N) 1,243 5.7 -21.9°
Drops below altitude 10° 02:38:48 10° 31° (NNE) 1,470 6.7 -21.6°
Sets 02:41:37 0° 57° (ENE) 2,321 8.4 -21.1°
